• In Uzbekistan
  • List of Countries
  • For 7 days
  • Water Temperature
  • Satellite Maps
  • Weather Map
  • Weather Widgets
  • user-avatar
    Login

    Hourly Weather Quebec

    Today, 18 January, Thursday

    Time Temperature Precipitation Wind Pressure Humidity
    00:00 -18°C° 0.2 mm 5 mps 684 mmHg 92%
    01:00 -18°C° 0.2 mm 5 mps 684 mmHg 92%
    02:00 -18°C° 0.2 mm 5 mps 684 mmHg 92%
    03:00 -17°C° 0.2 mm 4 mps 683 mmHg 93%
    04:00 -17°C° 0.2 mm 4 mps 683 mmHg 94%
    05:00 -18°C° 0.1 mm 4 mps 683 mmHg 94%
    06:00 -19°C° 0.1 mm 4 mps 683 mmHg 93%
    07:00 -20°C° 0.1 mm 4 mps 683 mmHg 93%
    08:00 -20°C° 0 mm 4 mps 684 mmHg 91%
    09:00 -20°C° 0 mm 4 mps 684 mmHg 89%
    10:00 -22°C° 0 mm 5 mps 685 mmHg 87%
    11:00 -22°C° 0 mm 5 mps 685 mmHg 85%
    12:00 -22°C° 0 mm 5 mps 685 mmHg 84%
    13:00 -22°C° 0 mm 5 mps 686 mmHg 82%
    14:00 -23°C° 0 mm 4 mps 686 mmHg 85%
    15:00 -24°C° 0 mm 4 mps 687 mmHg 87%
    16:00 -24°C° 0 mm 4 mps 687 mmHg 90%
    17:00 -24°C° 0 mm 3 mps 687 mmHg 92%
    18:00 -25°C° 0 mm 3 mps 687 mmHg 94%
    19:00 -26°C° 0 mm 3 mps 688 mmHg 96%
    20:00 -27°C° 0 mm 3 mps 688 mmHg 96%
    21:00 -27°C° 0 mm 3 mps 688 mmHg 97%
    22:00 -27°C° 0 mm 2 mps 688 mmHg 97%
    23:00 -27°C° 0 mm 2 mps 688 mmHg 97%

    Tomorrow, 19 January, Friday

    Time Temperature Precipitation Wind Pressure Humidity
    00:00 -28°C° 0 mm 2 mps 688 mmHg 97%
    01:00 -28°C° 0 mm 2 mps 688 mmHg 97%
    02:00 -27°C° 0 mm 1 mps 688 mmHg 97%
    03:00 -27°C° 0 mm 1 mps 689 mmHg 97%
    04:00 -27°C° 0 mm 1 mps 689 mmHg 97%
    05:00 -27°C° 0 mm 1 mps 689 mmHg 97%
    06:00 -27°C° 0 mm 1 mps 689 mmHg 97%
    07:00 -27°C° 0 mm 1 mps 689 mmHg 97%
    08:00 -25°C° 0 mm 1 mps 690 mmHg 94%
    09:00 -23°C° 0 mm 1 mps 690 mmHg 91%
    10:00 -22°C° 0 mm 1 mps 690 mmHg 87%
    11:00 -20°C° 0 mm 1 mps 690 mmHg 84%
    12:00 -21°C° 0 mm 2 mps 689 mmHg 81%
    13:00 -19°C° 0 mm 2 mps 689 mmHg 78%
    14:00 -19°C° 0 mm 2 mps 688 mmHg 81%
    15:00 -20°C° 0 mm 2 mps 688 mmHg 85%
    16:00 -20°C° 0 mm 2 mps 687 mmHg 88%
    17:00 -21°C° 0 mm 3 mps 687 mmHg 88%
    18:00 -21°C° 0 mm 3 mps 686 mmHg 88%
    19:00 -20°C° 0 mm 4 mps 686 mmHg 88%
    20:00 -21°C° 0.3 mm 5 mps 684 mmHg 90%
    21:00 -20°C° 0.3 mm 5 mps 683 mmHg 91%
    22:00 -21°C° 0.3 mm 6 mps 682 mmHg 93%
    23:00 -20°C° 0.7 mm 6 mps 681 mmHg 93%

    Day after tomorrow, 20 January, Saturday

    Time Temperature Precipitation Wind Pressure Humidity
    00:00 -18°C° 0.7 mm 6 mps 680 mmHg 93%
    01:00 -16°C° 0.7 mm 6 mps 679 mmHg 93%
    02:00 -15°C° 0.8 mm 6 mps 678 mmHg 93%
    03:00 -14°C° 0.8 mm 6 mps 677 mmHg 93%
    04:00 -12°C° 0.8 mm 6 mps 676 mmHg 93%
    05:00 -11°C° 0.4 mm 6 mps 676 mmHg 93%
    06:00 -10°C° 0.4 mm 5 mps 675 mmHg 93%
    07:00 -10°C° 0.4 mm 5 mps 675 mmHg 93%
    08:00 -9°C° 0.3 mm 6 mps 675 mmHg 92%
    09:00 -8°C° 0.3 mm 6 mps 675 mmHg 90%
    10:00 -8°C° 0.3 mm 7 mps 675 mmHg 89%
    11:00 -7°C° 0.3 mm 7 mps 675 mmHg 88%
    12:00 -7°C° 0.3 mm 7 mps 675 mmHg 88%
    13:00 -7°C° 0.3 mm 7 mps 675 mmHg 87%
    14:00 -8°C° 0.4 mm 8 mps 675 mmHg 87%
    15:00 -11°C° 0.4 mm 8 mps 676 mmHg 86%
    16:00 -12°C° 0.4 mm 8 mps 676 mmHg 85%
    17:00 -15°C° 0.1 mm 8 mps 677 mmHg 86%
    18:00 -18°C° 0.1 mm 8 mps 678 mmHg 86%
    19:00 -20°C° 0.1 mm 7 mps 680 mmHg 87%
    20:00 -21°C° 0 mm 7 mps 681 mmHg 87%
    21:00 -24°C° 0 mm 7 mps 682 mmHg 88%
    22:00 -25°C° 0 mm 7 mps 683 mmHg 89%
    23:00 -26°C° 0 mm 7 mps 683 mmHg 89%

    21 January, Sunday

    Time Temperature Precipitation Wind Pressure Humidity
    00:00 -27°C° 0 mm 7 mps 684 mmHg 90%
    01:00 -29°C° 0 mm 7 mps 685 mmHg 91%
    02:00 -29°C° 0 mm 6 mps 686 mmHg 91%
    03:00 -30°C° 0 mm 6 mps 686 mmHg 92%
    04:00 -31°C° 0 mm 6 mps 687 mmHg 92%
    05:00 -33°C° 0 mm 6 mps 687 mmHg 93%
    06:00 -33°C° 0 mm 5 mps 688 mmHg 93%
    07:00 -34°C° 0 mm 5 mps 688 mmHg 94%
    08:00 -36°C° 0 mm 6 mps 689 mmHg 93%
    09:00 -36°C° 0 mm 6 mps 690 mmHg 93%
    10:00 -36°C° 0 mm 6 mps 690 mmHg 92%
    11:00 -35°C° 0 mm 6 mps 691 mmHg 91%
    12:00 -35°C° 0 mm 6 mps 692 mmHg 91%
    13:00 -34°C° 0 mm 6 mps 692 mmHg 90%
    14:00 -35°C° 0 mm 6 mps 693 mmHg 91%
    15:00 -35°C° 0 mm 6 mps 694 mmHg 92%
    16:00 -34°C° 0 mm 5 mps 695 mmHg 92%
    17:00 -35°C° 0 mm 5 mps 695 mmHg 93%
    18:00 -35°C° 0 mm 5 mps 696 mmHg 94%
    19:00 -37°C° 0 mm 5 mps 697 mmHg 95%
    20:00 -35°C° 0 mm 4 mps 697 mmHg 95%
    21:00 -37°C° 0 mm 4 mps 698 mmHg 96%
    22:00 -37°C° 0 mm 4 mps 698 mmHg 96%
    23:00 -36°C° 0 mm 3 mps 698 mmHg 97%

    22 January, Monday

    Time Temperature Precipitation Wind Pressure Humidity
    00:00 -36°C° 0 mm 3 mps 698 mmHg 97%
    01:00 -36°C° 0 mm 2 mps 699 mmHg 97%
    02:00 -36°C° 0 mm 2 mps 699 mmHg 97%
    03:00 -36°C° 0 mm 2 mps 700 mmHg 98%
    04:00 -36°C° 0 mm 2 mps 700 mmHg 98%
    05:00 -35°C° 0 mm 2 mps 701 mmHg 98%
    06:00 -35°C° 0 mm 2 mps 701 mmHg 98%
    07:00 -32°C° 0 mm 1 mps 701 mmHg 98%
    08:00 -30°C° 0 mm 1 mps 701 mmHg 96%
    09:00 -29°C° 0 mm 1 mps 702 mmHg 94%
    10:00 -27°C° 0 mm 1 mps 702 mmHg 93%
    11:00 -24°C° 0 mm 1 mps 702 mmHg 91%
    12:00 -23°C° 0 mm 1 mps 701 mmHg 89%
    13:00 -21°C° 0 mm 1 mps 701 mmHg 87%
    14:00 -24°C° 0 mm 2 mps 700 mmHg 89%
    15:00 -24°C° 0 mm 2 mps 700 mmHg 91%
    16:00 -24°C° 0 mm 2 mps 699 mmHg 93%
    17:00 -24°C° 0 mm 2 mps 699 mmHg 92%
    18:00 -25°C° 0 mm 3 mps 698 mmHg 91%
    19:00 -25°C° 0 mm 4 mps 698 mmHg 90%
    20:00 -25°C° 0.1 mm 4 mps 697 mmHg 90%
    21:00 -25°C° 0.1 mm 5 mps 696 mmHg 90%
    22:00 -24°C° 0.1 mm 5 mps 695 mmHg 89%
    23:00 -24°C° 0.5 mm 6 mps 693 mmHg 90%

    23 January, Tuesday

    Time Temperature Precipitation Wind Pressure Humidity
    00:00 -23°C° 0.5 mm 6 mps 692 mmHg 91%
    01:00 -23°C° 0.5 mm 7 mps 690 mmHg 92%
    02:00 -23°C° 0.7 mm 7 mps 689 mmHg 93%
    03:00 -21°C° 0.7 mm 7 mps 688 mmHg 93%
    04:00 -21°C° 0.7 mm 7 mps 687 mmHg 93%
    05:00 -18°C° 0.6 mm 6 mps 686 mmHg 93%
    06:00 -17°C° 0.6 mm 6 mps 685 mmHg 93%
    07:00 -16°C° 0.6 mm 6 mps 684 mmHg 92%
    08:00 -14°C° 0.3 mm 6 mps 684 mmHg 92%
    09:00 -12°C° 0.3 mm 6 mps 683 mmHg 92%
    10:00 -11°C° 0.3 mm 6 mps 682 mmHg 92%
    11:00 -10°C° 0.4 mm 6 mps 681 mmHg 92%
    12:00 -9°C° 0.4 mm 6 mps 680 mmHg 92%
    13:00 -8°C° 0.4 mm 6 mps 679 mmHg 92%
    14:00 -6°C° 0.2 mm 5 mps 679 mmHg 92%
    15:00 -6°C° 0.2 mm 5 mps 678 mmHg 93%
    16:00 -5°C° 0.2 mm 4 mps 678 mmHg 93%
    17:00 -5°C° 0.4 mm 4 mps 677 mmHg 94%
    18:00 -6°C° 0.4 mm 3 mps 677 mmHg 95%
    19:00 -6°C° 0.4 mm 3 mps 676 mmHg 95%
    20:00 -7°C° 0.2 mm 3 mps 676 mmHg 95%
    21:00 -7°C° 0.2 mm 3 mps 676 mmHg 95%
    22:00 -9°C° 0.2 mm 4 mps 676 mmHg 95%
    23:00 -11°C° 0.2 mm 4 mps 676 mmHg 95%
    Show more